Location: ??
(35.5052°N, 139.7262°E)
Time: 17:23:16
(UTC+00:00)

IRS-P3 - Pass Details

Date: 20 June 2021
Orbit: 813 x 819 km, 98.9° (Epoch: 29 July)

Event Time Altitude Azimuth Distance (km) Brightness Sun altitude
Rises 17:58:05 0° 8° (N) 3,344 8.2 -15.1°
Reaches altitude 10° 18:00:27 10° 5° (N) 2,408 7.3 -14.8°
Maximum altitude 18:05:40 59° 287° (WNW) 933 4.3 -14.0°
Enters shadow 18:09:34 18° 212° (SSW) 1,901 5.4 -13.4°
